Location: K�ln
(50.9455°N, 6.9544°E)
Time: 09:55:43
(UTC+02:00)

ISS - Pass Details

Date: 11 February 2018
Orbit: 402 x 406 km, 51.6° (Epoch: 18 June)

Event Time Altitude Azimuth Distance (km) Brightness Sun altitude
Rises 19:15:50 0° 281° (W) 2,321 1.6 -15.3°
Reaches altitude 10° 19:18:29 10° 258° (WSW) 1,458 0.3 -15.7°
Maximum altitude 19:20:31 16° 219° (SW) 1,162 -1.0 -16.1°
Drops below altitude 10° 19:22:34 10° 180° (S) 1,454 -1.0 -16.4°
Enters shadow 19:24:05 - 165° (SSE) 1,914 -0.5 -16.6°
